#timestamp,LO_Frequency,Hit,StdDev 
1620129615.3,286046998.1,N
1620129635.2,286046998.4,N
1620129655.0,286046996.9,N
1620129655.9,286046996.9,N
1620129675.8,286046995.2,N
1620129695.6,286046996.1,N
1620129715.4,286046994.0,Y
1620129735.3,286046995.0,P
1620129755.1,286046995.0,P
1620129775.8,286046996.9,N
1620129795.7,286047002.5,N
1620129815.5,286047002.5,N
1620129835.4,286046999.9,N
1620129855.2,286047000.6,N
1620129875.0,286046996.7,N
1620129875.9,286046996.7,N
1620129895.8,286046997.8,N
1620129915.6,286046995.0,N
1620129935.5,286046994.9,N
1620129955.3,286046996.8,N
1620129975.1,286046997.5,N
1620129995.9,286046998.0,N
1620130015.7,286046996.5,N
1620130035.5,286046999.2,N
1620130055.4,286046997.4,N
1620130075.2,286047000.8,N
1620130095.1,286046999.4,N
1620130096.0,286046999.4,N
1620130115.8,286046999.2,N
1620130135.6,286047000.9,N
1620130155.5,286046998.6,N
1620130175.3,286047000.5,N
1620130195.2,286047001.1,N
1620130215.9,286047002.7,N
1620130235.7,286047000.9,N
1620130255.6,286047000.1,N
1620130275.4,286047000.6,N
1620130295.2,286047001.1,N
1620130315.1,286046999.1,N
1620130316.0,286046999.1,N
1620130335.8,286046998.8,N
1620130355.7,286046998.2,N
1620130375.5,286046998.4,N
1620130395.3,286047000.5,N
1620130415.2,286046998.9,N
1620130435.0,286046996.1,N
1620130435.9,286046996.1,N
1620130455.8,286046994.3,Y
1620130475.6,286046997.7,P
1620130495.4,286046994.9,P
1620130515.3,286046995.6,N
1620130535.1,286046995.3,N
1620130555.9,286046993.8,Y
1620130575.7,286046997.6,P
1620130595.5,286046996.8,P
1620130615.4,286047000.9,N
1620130635.2,286047000.8,N
1620130655.1,286046998.5,N
1620130656.0,286046998.5,N
1620130675.5,286047000.4,N
1620130695.3,286047001.7,N
1620130715.2,286047002.1,N
1620130735.9,286046999.7,N
1620130755.7,286047000.5,N
1620130775.6,286047002.4,N
1620130795.4,286047002.8,N
1620130815.2,286047000.1,N
1620130835.1,286047002.6,N
1620130836.0,286047002.6,N
1620130855.8,286047004.3,N
1620130875.7,286047004.1,N
1620130895.5,286047003.1,N
1620130915.3,286047003.7,N
1620130935.2,286047011.9,Y
1620130955.0,286046999.9,P
1620130955.9,286046999.9,N
1620130975.7,286047000.5,N
1620130995.6,286047001.5,Y
1620131015.4,286047002.0,P
1620131035.3,286047004.2,P
1620131055.1,286047005.8,P
1620131056.0,286047005.8,N
1620131075.8,286047004.8,N
1620131095.7,286047005.6,N
1620131115.5,286047002.3,N
1620131135.3,286047001.3,N
1620131155.2,286047003.6,N
1620131175.0,286047004.4,N
1620131175.9,286047004.4,N
1620131195.8,286047004.2,N
1620131215.6,286047003.8,N
1620131235.4,286047000.2,N
1620131255.3,286047001.7,N
1620131275.1,286047001.7,N
1620131295.9,286047002.6,N
1620131315.7,286047004.3,N
1620131335.5,286047003.9,N
1620131355.4,286047002.2,N
1620131375.2,286047002.1,N
1620131395.0,286047001.4,N
1620131395.9,286047001.4,N
1620131415.8,286047002.5,N
1620131435.6,286047002.5,N
1620131455.5,286047000.1,N
1620131505.3,286047001.8,E
1620131515.2,286047002.7,N
1620131535.1,286047000.1,P
1620131536.0,286047000.1,N
1620131555.8,286047001.9,N
1620131605.7,286047003.5,E
1620131615.6,286047002.6,N
1620131635.5,286046996.5,P
1620131655.3,286046997.1,N
1620131675.1,286046999.4,N
1620131695.9,286046998.2,N
1620131715.7,286046998.9,N
1620131735.5,286046999.5,N
1620131755.4,286046997.7,N
1620131775.2,286046993.5,Y
1620131795.1,286046995.6,P
1620131796.0,286046995.6,N
1620131815.8,286046995.5,P
1620131835.6,286046996.0,N
1620131855.5,286046997.7,N
1620131875.3,286046999.1,N
1620131895.2,286046998.8,N
1620131915.9,286046996.6,N
1620131935.7,286046996.5,N
1620131955.6,286046996.9,N
1620131975.4,286046996.5,N
1620131995.3,286046998.5,N
1620132015.1,286047000.3,N
1620132016.0,286047000.3,N
1620132035.8,286047002.4,N
1620132055.7,286047000.2,N
1620132075.5,286047000.4,N
1620132095.3,286046998.4,N
1620132115.2,286047000.8,N
1620132135.0,286047000.8,N
1620132135.9,286047000.8,N
1620132155.8,286047001.3,N
1620132175.6,286047002.8,N
1620132195.4,286046998.5,N
1620132215.3,286047000.8,N
1620132235.1,286046998.1,N
1620132255.9,286046999.8,N
1620132275.7,286047002.4,N
1620132295.5,286047002.3,N
1620132315.4,286047002.5,N
1620132335.2,286047001.7,N
1620132355.0,286047002.5,N
1620132356.0,286047002.5,N
1620132375.8,286047000.2,N
1620132395.6,286046999.1,N
1620132415.5,286046999.2,N
1620132435.3,286047000.9,N
1620132455.2,286046999.7,N
1620132475.9,286047000.4,N
1620132495.7,286047001.2,N
1620132515.6,286047000.4,N
1620132535.4,286046998.1,N
1620132555.2,286047001.1,N
1620132575.1,286046998.9,N
1620132576.0,286046998.9,N
1620132595.8,286047000.5,N
1620132615.7,286047001.2,N
1620132635.5,286046998.4,N
1620132655.3,286046998.6,N
1620132675.2,286047000.5,N
1620132695.0,286046998.7,N
1620132695.9,286046998.7,N
1620132715.8,286047001.1,N
1620132735.6,286046998.3,N
1620132755.4,286047000.8,N
1620132775.3,286047000.7,N
1620132795.1,286047000.7,N
1620132815.8,286046997.7,N
1620132835.7,286046995.2,Y
1620132855.5,286046995.5,P
1620132875.4,286046995.5,N
1620132895.2,286046996.7,N
1620132915.0,286046997.0,N
1620132915.9,286046997.0,N
1620132935.8,286046999.3,N
1620132955.6,286046999.1,N
1620132975.4,286046999.8,N
1620132995.3,286047002.3,N
1620133015.1,286046998.2,N
1620133035.9,286047002.8,N
1620133055.7,286046998.7,N
1620133075.5,286046997.3,N
1620133095.4,286046996.5,N
1620133115.2,286046998.5,N
1620133135.0,286046999.2,N
1620133135.9,286046999.2,N
1620133155.8,286046999.6,N
1620133175.6,286046996.7,N
1620133195.5,286046994.9,N
